Regional Weather Roundup
Issued by NWS

Home | Current Version | Previous Version | Text Only | Print | Product List | Glossary On
Versions: 1 2 3 4 5 6 7 8 9 10 11 12 13 14 15 16 17 18 19 20 21 22 23 24 25 26 27 28 29 30 31 32 33 34 35 36 37 38 39 40 41 42 43 44 45 46 47 48 49 50
888
ASUS44 KLIX 112110
RWRLA
LOUISIANA WEATHER ROUNDUP
NATIONAL WEATHER SERVICE NEW ORLEANS LA
300 PM CST THU FEB 11 2016

NOTE: "FAIR" INDICATES FEW OR NO CLOUDS BELOW 12,000 FEET WITH NO
      SIGNIFICANT WEATHER AND/OR OBSTRUCTIONS TO VISIBILITY.
      SKY/WX - SKY CONDITION AND SIGNIFICANT WEATHER.
      TMP - AIR TEMPERATURE.    DP   - DEWPOINT TEMPERATURE.
      RH  - RELATIVE HUMIDITY.  PRES - PRESSURE.
      HX  - HEAT INDEX.         WCI  - WIND CHILL INDEX.

*  THESE STATIONS ARE NOT NWS OR FAA STATIONS AND ARE NOT UNDER
   NWS QUALITY CONTROL.

LAZ040-048-061>063-065-066-069-112200-
SOUTHEAST LOUISIANA

CITY           SKY/WX    TMP DP  RH WIND       PRES   REMARKS
N.O. AUDUBON     N/A     72  55  55 MISG        N/A
N.O. INTL ARPT MOSUNNY   76  51  41 W18G25    30.13F
N.O. LAKEFRONT SUNNY     66  51  58 W14       30.13F
N.O. DOWNTOWN* FAIR      75  54  46 MISG      30.15S
RESERVE*       FAIR      75  55  50 SW17G25   30.14S
SLIDELL        SUNNY     74  55  51 SW9       30.12F
BATON ROUGE    SUNNY     76  49  38 W17G25    30.12F
BOOTHVILLE     SUNNY     67  58  72 SW15G22   30.19F
BELLE CHASSE   MOSUNNY   72  55  55 SW16G26   30.14F
BOGALUSA*        N/A     78  46  31 W9        30.11S
GALLIANO*      PTCLDY    71  58  62 W18       30.17F
NEW ROADS*     FAIR      75  49  39 SW16      30.12S
GONZALES*      FAIR      74  55  50 SW12G20   30.13F
HAMMOND*       SUNNY     77  45  31 SW9G18    30.10F
HOUMA*         MOSUNNY   70  57  64 W16G24    30.17F
PORT FOURCHON* CLEAR     68  59  73 SW15      30.20S

$$

LAZ041-044-053-054-112200-
SOUTHWEST LOUISIANA

CITY           SKY/WX    TMP DP  RH WIND       PRES   REMARKS
LAKE CHARLES   SUNNY     72  56  57 SW16G25   30.13F
LAFAYETTE      SUNNY     72  54  53 SW21G28   30.13F
PATTERSON      MOSUNNY   72  55  56 W22G28    30.18F
SALT POINT       N/A     62  58  86 VRB3      30.16F
NEW IBERIA     LGT RAIN  73  55  53 SW20G29   30.15F
CHENAULT AIRPK SUNNY     73  55  53 SW18G24   30.12F

$$

LAZ027-028-112200-
CENTRAL LOUISIANA

CITY           SKY/WX    TMP DP  RH WIND       PRES   REMARKS
FORT POLK      SUNNY     76  44  32 SW13      30.09F
ALEXANDRIA INT SUNNY     77  43  29 SW12      30.06F
ALEXANDRIA     SUNNY     80  41  24 W15G23    30.07F

$$

LAZ001-002-112200-
NORTHWEST LOUISIANA

CITY           SKY/WX    TMP DP  RH WIND       PRES   REMARKS
SHREVEPORT     PTSUNNY   79  33  19 W9        30.04S
BARKSDALE AFB  MOSUNNY   77  34  21 W12       30.04S
DTN SHREVEPORT MOSUNNY   77  32  19 SW13      30.04F

$$

LAZ014-016-112200-
NORTHEAST LOUISIANA

CITY           SKY/WX    TMP DP  RH WIND       PRES   REMARKS
MONROE         SUNNY     75  38  26 N7        30.05F
TALLULAH       SUNNY     77  37  23 W8        30.06S

$$





USA.gov is the U.S. government's official web portal to all federal, state and local government web resources and services.